カタログに戻る

JCSAT 2B

運用中通信GEO
NORAD 41471·PAYLOAD·🇯🇵 Japan

打ち上げ May 6, 2016 から Cape Canaveral Space Force Station

Loading…

TLE

最新Source: Space-Track

元期: Sep 14, 2026, 14:19 UTC

1 41471U 16028A   26257.59719662  .00000000  00000-0  00000-0 0  9991
2 41471   0.0218 153.7969 0000619 357.8220 210.9473  1.00268833 38023

AllMySatでJCSAT 2Bをリアルタイム追跡

Download on the App Store